07-07-2022, 00:00:08,    261,    1.8,   15.2,   0.00,   0.00, 1021.2,   72.2, -999.0
07-07-2022, 00:00:18,    249,    1.7,   15.3,   0.00,   0.00, 1021.2,   72.3, -999.0
07-07-2022, 00:00:28,    250,    0.8,   15.3,   0.00,   0.00, 1021.2,   72.2, -999.0
07-07-2022, 00:00:38,    251,    0.2,   15.1,   0.00,   0.00, 1021.1,   72.0, -999.0
07-07-2022, 00:00:48,    251,    0.4,   15.4,   0.00,   0.00, 1021.2,   72.4, -999.0
07-07-2022, 00:00:58,    251,    0.5,   15.3,   0.00,   0.00, 1021.2,   72.3, -999.0
07-07-2022, 00:01:08,    252,    0.0,   15.2,   0.00,   0.00, 1021.1,   72.1, -999.0
07-07-2022, 00:01:18,    289,    1.3,   15.2,   0.00,   0.00, 1021.2,   72.3, -999.0
07-07-2022, 00:01:28,    289,    0.2,   15.2,   0.00,   0.00, 1021.1,   72.2, -999.0
07-07-2022, 00:01:37,    288,    0.0,   15.2,   0.00,   0.00, 1021.1,   72.0, -999.0
07-07-2022, 00:01:48,    261,    1.5,   15.2,   0.00,   0.00, 1021.2,   72.5, -999.0
07-07-2022, 00:01:58,    261,    1.4,   15.3,   0.00,   0.00, 1021.2,   72.5, -999.0
07-07-2022, 00:02:07,    262,    1.2,   15.3,   0.00,   0.00, 1021.2,   72.3, -999.0
07-07-2022, 00:02:17,    261,    0.8,   15.3,   0.00,   0.00, 1021.2,   72.4, -999.0
07-07-2022, 00:02:28,    261,    0.1,   15.2,   0.00,   0.00, 1021.1,   72.2, -999.0
07-07-2022, 00:02:37,    261,    0.4,   15.3,   0.00,   0.00, 1021.1,   72.2, -999.0
07-07-2022, 00:02:47,    261,    0.5,   15.2,   0.00,   0.00, 1021.2,   72.5, -999.0
07-07-2022, 00:02:57,    261,    0.0,   15.2,   0.00,   0.00, 1021.1,   72.1, -999.0
07-07-2022, 00:03:07,    261,    0.0,   15.2,   0.00,   0.00, 1021.1,   72.2, -999.0
07-07-2022, 00:03:17,    261,    0.0,   15.1,   0.00,   0.00, 1021.1,   72.2, -999.0
07-07-2022, 00:03:27,    262,    0.1,   15.2,   0.00,   0.00, 1021.1,   72.3, -999.0
07-07-2022, 00:03:37,    261,    0.0,   15.2,   0.00,   0.00, 1021.1,   72.3, -999.0
07-07-2022, 00:03:47,    262,    0.2,   15.2,   0.00,   0.00, 1021.1,   72.4, -999.0
07-07-2022, 00:03:57,    269,    0.9,   15.2,   0.00,   0.00, 1021.2,   72.3, -999.0
07-07-2022, 00:04:07,    268,    0.0,   15.1,   0.00,   0.00, 1021.1,   72.3, -999.0
07-07-2022, 00:04:17,    260,    0.9,   15.2,   0.00,   0.00, 1021.2,   72.6, -999.0
07-07-2022, 00:04:27,    260,    1.0,   15.3,   0.00,   0.00, 1021.2,   72.6, -999.0
07-07-2022, 00:04:37,    267,    1.7,   15.3,   0.00,   0.00, 1021.1,   72.5, -999.0
07-07-2022, 00:04:46,    268,    1.3,   15.2,   0.00,   0.00, 1021.2,   72.4, -999.0
07-07-2022, 00:04:57,    267,    0.2,   15.2,   0.00,   0.00, 1021.1,   72.6, -999.0
07-07-2022, 00:05:07,    274,    1.0,   15.2,   0.00,   0.00, 1021.1,   72.4, -999.0
07-07-2022, 00:05:16,    283,    2.7,   15.3,   0.00,   0.00, 1021.2,   72.7, -999.0
07-07-2022, 00:05:27,    274,    3.2,   15.3,   0.00,   0.00, 1021.2,   72.5, -999.0
07-07-2022, 00:05:36,    260,    2.3,   15.3,   0.00,   0.00, 1021.2,   72.6, -999.0
07-07-2022, 00:05:46,    269,    1.3,   15.3,   0.00,   0.00, 1021.2,   72.7, -999.0
07-07-2022, 00:05:56,    285,    2.1,   15.3,   0.00,   0.00, 1021.2,   72.5, -999.0
07-07-2022, 00:06:06,    281,    1.5,   15.3,   0.00,   0.00, 1021.2,   72.7, -999.0
07-07-2022, 00:06:16,    293,    0.4,   15.3,   0.00,   0.00, 1021.2,   72.5, -999.0
07-07-2022, 00:06:26,    292,    0.0,   15.2,   0.00,   0.00, 1021.1,   72.5, -999.0
07-07-2022, 00:06:36,    292,    0.0,   15.2,   0.00,   0.00, 1021.1,   72.3, -999.0
07-07-2022, 00:06:46,    292,    0.0,   15.2,   0.00,   0.00, 1021.1,   72.3, -999.0
07-07-2022, 00:06:56,    279,    0.4,   15.2,   0.00,   0.00, 1021.1,   72.6, -999.0
07-07-2022, 00:07:06,    256,    2.3,   15.3,   0.00,   0.00, 1021.2,   72.6, -999.0
07-07-2022, 00:07:16,    298,    1.6,   15.3,   0.00,   0.00, 1021.2,   72.8, -999.0
07-07-2022, 00:07:26,    249,    3.0,   15.3,   0.00,   0.00, 1021.2,   72.5, -999.0
07-07-2022, 00:07:36,    270,    2.5,   15.4,   0.00,   0.00, 1021.2,   72.7, -999.0
07-07-2022, 00:07:46,    265,    1.7,   15.3,   0.00,   0.00, 1021.2,   72.5, -999.0
07-07-2022, 00:07:56,    267,    0.8,   15.3,   0.00,   0.00, 1021.2,   72.8, -999.0
07-07-2022, 00:08:06,    263,    1.8,   15.2,   0.00,   0.00, 1021.2,   72.7, -999.0
07-07-2022, 00:08:15,    269,    2.5,   15.2,   0.00,   0.00, 1021.2,   72.7, -999.0
07-07-2022, 00:08:25,    266,    2.3,   15.3,   0.00,   0.00, 1021.2,   72.7, -999.0
07-07-2022, 00:08:36,    285,    1.7,   15.3,   0.00,   0.00, 1021.2,   72.7, -999.0
07-07-2022, 00:08:45,    285,    0.3,   15.3,   0.00,   0.00, 1021.1,   72.5, -999.0
07-07-2022, 00:08:55,    284,    0.0,   15.2,   0.00,   0.00, 1021.1,   72.3, -999.0
07-07-2022, 00:09:05,    282,    0.0,   15.2,   0.00,   0.00, 1021.1,   72.2, -999.0
07-07-2022, 00:09:15,    283,    0.0,   15.2,   0.00,   0.00, 1021.0,   72.3, -999.0
07-07-2022, 00:09:25,    284,    0.0,   15.3,   0.00,   0.00, 1021.1,   72.3, -999.0
07-07-2022, 00:09:35,    284,    0.0,   15.2,   0.00,   0.00, 1021.1,   72.3, -999.0
07-07-2022, 00:09:45,    284,    0.0,   15.3,   0.00,   0.00, 1021.1,   72.3, -999.0
07-07-2022, 00:09:55,    284,    0.0,   15.3,   0.00,   0.00, 1021.1,   72.2, -999.0
07-07-2022, 00:10:05,    284,    0.0,   15.3,   0.00,   0.00, 1021.1,   72.2, -999.0
07-07-2022, 00:10:15,    283,    0.0,   15.2,   0.00,   0.00, 1021.1,   72.1, -999.0
07-07-2022, 00:10:25,    293,    1.1,   15.3,   0.00,   0.00, 1021.2,   72.5, -999.0
07-07-2022, 00:10:35,    294,    0.2,   15.2,   0.00,   0.00, 1021.2,   72.3, -999.0
07-07-2022, 00:10:45,    289,    0.9,   15.3,   0.00,   0.00, 1021.2,   72.6, -999.0
07-07-2022, 00:10:54,    253,    0.7,   15.4,   0.00,   0.00, 1021.2,   72.7, -999.0
07-07-2022, 00:11:05,    263,    2.1,   15.4,   0.00,   0.00, 1021.2,   72.5, -999.0
07-07-2022, 00:11:15,    266,    0.6,   15.3,   0.00,   0.00, 1021.1,   72.3, -999.0
07-07-2022, 00:11:24,    301,    1.4,   15.3,   0.00,   0.00, 1021.2,   72.4, -999.0
07-07-2022, 00:11:35,    297,    0.8,   15.4,   0.00,   0.00, 1021.1,   72.6, -999.0
07-07-2022, 00:11:45,    278,    1.9,   15.3,   0.00,   0.00, 1021.2,   72.5, -999.0
07-07-2022, 00:11:54,    278,    0.9,   15.3,   0.00,   0.00, 1021.1,   72.6, -999.0
07-07-2022, 00:12:04,    281,    0.0,   15.3,   0.00,   0.00, 1021.0,   72.1, -999.0
07-07-2022, 00:12:14,    281,    0.3,   15.2,   0.00,   0.00, 1021.1,   72.4, -999.0
07-07-2022, 00:12:24,    282,    0.2,   15.2,   0.00,   0.00, 1021.1,   72.5, -999.0
07-07-2022, 00:12:34,    292,    1.6,   15.3,   0.00,   0.00, 1021.2,   72.5, -999.0
07-07-2022, 00:12:44,    296,    2.2,   15.4,   0.00,   0.00, 1021.2,   72.7, -999.0
07-07-2022, 00:12:54,    286,    1.6,   15.3,   0.00,   0.00, 1021.2,   72.8, -999.0
07-07-2022, 00:13:04,    260,    1.6,   15.3,   0.00,   0.00, 1021.2,   72.6, -999.0
07-07-2022, 00:13:14,    308,    3.7,   15.3,   0.00,   0.00, 1021.1,   72.5, -999.0
07-07-2022, 00:13:24,    276,    2.4,   15.3,   0.00,   0.00, 1021.2,   72.6, -999.0
07-07-2022, 00:13:34,    293,    0.8,   15.3,   0.00,   0.00, 1021.2,   72.5, -999.0
07-07-2022, 00:13:44,    260,    1.1,   15.3,   0.00,   0.00, 1021.2,   72.4, -999.0
07-07-2022, 00:13:54,    284,    2.1,   15.3,   0.00,   0.00, 1021.2,   72.7, -999.0
07-07-2022, 00:14:04,    284,    0.2,   15.3,   0.00,   0.00, 1021.1,   72.2, -999.0
07-07-2022, 00:14:14,    283,    0.7,   15.3,   0.00,   0.00, 1021.1,   72.5, -999.0
07-07-2022, 00:14:24,    285,    2.4,   15.4,   0.00,   0.00, 1021.1,   72.6, -999.0
07-07-2022, 00:14:33,    299,    3.4,   15.3,   0.00,   0.00, 1021.1,   72.6, -999.0
07-07-2022, 00:14:44,    300,    1.9,   15.3,   0.00,   0.00, 1021.1,   72.4, -999.0
07-07-2022, 00:14:53,    299,    1.7,   15.3,   0.00,   0.00, 1021.1,   72.6, -999.0
07-07-2022, 00:15:03,    321,    0.8,   15.3,   0.00,   0.00, 1021.1,   72.5, -999.0
07-07-2022, 00:15:13,    293,    0.4,   15.3,   0.00,   0.00, 1021.1,   72.7, -999.0
07-07-2022, 00:15:23,    295,    0.4,   15.3,   0.00,   0.00, 1021.1,   72.5, -999.0
07-07-2022, 00:15:33,    300,    3.3,   15.3,   0.00,   0.00, 1021.1,   72.6, -999.0
07-07-2022, 00:15:43,    298,    3.7,   15.3,   0.00,   0.00, 1021.1,   72.8, -999.0
07-07-2022, 00:15:53,    331,    3.0,   15.3,   0.00,   0.00, 1021.1,   72.7, -999.0
07-07-2022, 00:16:03,    326,    1.4,   15.3,   0.00,   0.00, 1021.1,   72.5, -999.0
07-07-2022, 00:16:13,    309,    0.8,   15.3,   0.00,   0.00, 1021.1,   72.8, -999.0
07-07-2022, 00:16:23,    308,    0.0,   15.3,   0.00,   0.00, 1021.0,   72.4, -999.0
07-07-2022, 00:16:33,    311,    0.4,   15.3,   0.00,   0.00, 1021.0,   72.6, -999.0
07-07-2022, 00:16:43,    312,    0.0,   15.3,   0.00,   0.00, 1021.0,   72.3, -999.0
07-07-2022, 00:16:53,    297,    1.6,   15.3,   0.00,   0.00, 1021.1,   72.8, -999.0
07-07-2022, 00:17:03,    291,    2.7,   15.3,   0.00,   0.00, 1021.1,   72.7, -999.0
07-07-2022, 00:17:13,    287,    1.6,   15.3,   0.00,   0.00, 1021.1,   72.7, -999.0
07-07-2022, 00:17:23,    295,    0.7,   15.3,   0.00,   0.00, 1021.1,   72.6, -999.0
07-07-2022, 00:17:32,    251,    2.1,   15.3,   0.00,   0.00, 1021.1,   72.8, -999.0
07-07-2022, 00:17:42,    249,    2.2,   15.3,   0.00,   0.00, 1021.1,   72.8, -999.0
07-07-2022, 00:17:53,    270,    1.7,   15.3,   0.00,   0.00, 1021.1,   72.9, -999.0
07-07-2022, 00:18:02,    263,    3.3,   15.3,   0.00,   0.00, 1021.1,   72.7, -999.0
07-07-2022, 00:18:12,    254,    3.1,   15.3,   0.00,   0.00, 1021.1,   72.9, -999.0
07-07-2022, 00:18:23,    322,    1.4,   15.3,   0.00,   0.00, 1021.1,   72.7, -999.0
07-07-2022, 00:18:32,    308,    1.8,   15.3,   0.00,   0.00, 1021.1,   72.8, -999.0
07-07-2022, 00:18:42,    292,    2.9,   15.3,   0.00,   0.00, 1021.2,   72.8, -999.0
07-07-2022, 00:18:52,    291,    2.7,   15.3,   0.00,   0.00, 1021.1,   72.7, -999.0
07-07-2022, 00:19:02,    263,    1.9,   15.4,   0.00,   0.00, 1021.1,   72.6, -999.0
07-07-2022, 00:19:12,    243,    1.1,   15.3,   0.00,   0.00, 1021.1,   72.9, -999.0
07-07-2022, 00:19:22,    250,    1.3,   15.3,   0.00,   0.00, 1021.2,   72.5, -999.0
07-07-2022, 00:19:32,    311,    0.7,   15.3,   0.00,   0.00, 1021.1,   72.6, -999.0
07-07-2022, 00:19:42,    311,    0.0,   15.2,   0.00,   0.00, 1021.0,   72.4, -999.0
07-07-2022, 00:19:52,    307,    0.4,   15.3,   0.00,   0.00, 1021.1,   72.8, -999.0
07-07-2022, 00:20:02,    307,    1.3,   15.3,   0.00,   0.00, 1021.1,   72.7, -999.0
07-07-2022, 00:20:12,    273,    2.3,   15.3,   0.00,   0.00, 1021.1,   72.9, -999.0
07-07-2022, 00:20:22,    252,    2.7,   15.3,   0.00,   0.00, 1021.2,   72.7, -999.0
07-07-2022, 00:20:35,    266,    2.1,   15.4,   0.00,   0.00, 1021.2,   72.6, -999.0
07-07-2022, 00:20:42,    265,    0.0,   15.2,   0.00,   0.00, 1021.0,   72.3, -999.0
07-07-2022, 00:20:52,    265,    1.4,   15.3,   0.00,   0.00, 1021.2,   72.3, -999.0
07-07-2022, 00:21:01,    283,    1.5,   15.3,   0.00,   0.00, 1021.2,   72.7, -999.0
07-07-2022, 00:21:11,    310,    1.4,   15.3,   0.00,   0.00, 1021.2,   72.7, -999.0
07-07-2022, 00:21:21,    277,    1.1,   15.4,   0.00,   0.00, 1021.2,   72.7, -999.0
07-07-2022, 00:21:31,    277,    0.0,   15.2,   0.00,   0.00, 1021.1,   72.2, -999.0
07-07-2022, 00:21:41,    288,    0.7,   15.2,   0.00,   0.00, 1021.1,   72.5, -999.0
07-07-2022, 00:21:51,    274,    1.2,   15.3,   0.00,   0.00, 1021.2,   73.0, -999.0
07-07-2022, 00:22:01,    245,    1.5,   15.3,   0.00,   0.00, 1021.2,   72.8, -999.0
07-07-2022, 00:22:11,    268,    2.3,   15.3,   0.00,   0.00, 1021.2,   72.7, -999.0
07-07-2022, 00:22:21,    255,    2.5,   15.3,   0.00,   0.00, 1021.2,   72.6, -999.0
07-07-2022, 00:22:31,    252,    1.0,   15.2,   0.00,   0.00, 1021.2,   73.0, -999.0
07-07-2022, 00:22:41,    274,    2.3,   15.3,   0.00,   0.00, 1021.2,   72.6, -999.0
07-07-2022, 00:22:51,    282,    1.0,   15.2,   0.00,   0.00, 1021.2,   72.7, -999.0
07-07-2022, 00:23:01,    293,    0.6,   15.2,   0.00,   0.00, 1021.2,   72.7, -999.0
07-07-2022, 00:23:11,    292,    1.7,   15.2,   0.00,   0.00, 1021.1,   72.8, -999.0
07-07-2022, 00:23:21,    255,    1.7,   15.3,   0.00,   0.00, 1021.2,   72.9, -999.0
07-07-2022, 00:23:31,    256,    1.1,   15.2,   0.00,   0.00, 1021.2,   72.9, -999.0
07-07-2022, 00:23:40,    257,    0.5,   15.3,   0.00,   0.00, 1021.2,   72.9, -999.0
07-07-2022, 00:23:51,    312,    1.8,   15.3,   0.00,   0.00, 1021.2,   72.9, -999.0
07-07-2022, 00:24:01,    257,    2.0,   15.3,   0.00,   0.00, 1021.2,   72.8, -999.0
07-07-2022, 00:24:10,    295,    1.7,   15.3,   0.00,   0.00, 1021.2,   72.8, -999.0
07-07-2022, 00:24:21,    293,    0.7,   15.3,   0.00,   0.00, 1021.1,   72.8, -999.0
07-07-2022, 00:24:30,    275,    0.6,   15.3,   0.00,   0.00, 1021.1,   72.7, -999.0
07-07-2022, 00:24:40,    288,    2.3,   15.3,   0.00,   0.00, 1021.1,   72.9, -999.0
07-07-2022, 00:24:50,    239,    3.4,   15.3,   0.00,   0.00, 1021.1,   72.7, -999.0
07-07-2022, 00:25:00,    295,    3.1,   15.3,   0.00,   0.00, 1021.1,   72.9, -999.0
07-07-2022, 00:25:10,    279,    1.4,   15.3,   0.00,   0.00, 1021.2,   73.0, -999.0
07-07-2022, 00:25:20,    283,    2.2,   15.3,   0.00,   0.00, 1021.1,   73.1, -999.0
07-07-2022, 00:25:30,    287,    0.9,   15.2,   0.00,   0.00, 1021.1,   72.8, -999.0
07-07-2022, 00:25:40,    265,    1.6,   15.2,   0.00,   0.00, 1021.2,   72.9, -999.0
07-07-2022, 00:25:50,    263,    1.2,   15.3,   0.00,   0.00, 1021.1,   73.0, -999.0
07-07-2022, 00:26:00,    301,    2.3,   15.3,   0.00,   0.00, 1021.1,   73.1, -999.0
07-07-2022, 00:26:10,    272,    3.2,   15.3,   0.00,   0.00, 1021.1,   72.9, -999.0
07-07-2022, 00:26:20,    273,    2.8,   15.3,   0.00,   0.00, 1021.1,   72.9, -999.0
07-07-2022, 00:26:30,    300,    2.9,   15.3,   0.00,   0.00, 1021.1,   73.1, -999.0
07-07-2022, 00:26:39,    279,    1.6,   15.3,   0.00,   0.00, 1021.1,   72.8, -999.0
07-07-2022, 00:26:50,    296,    2.2,   15.3,   0.00,   0.00, 1021.1,   73.0, -999.0
07-07-2022, 00:27:00,    300,    3.1,   15.3,   0.00,   0.00, 1021.1,   73.1, -999.0
07-07-2022, 00:27:09,    263,    2.0,   15.2,   0.00,   0.00, 1021.1,   73.0, -999.0
07-07-2022, 00:27:19,    270,    1.9,   15.2,   0.00,   0.00, 1021.1,   73.3, -999.0
07-07-2022, 00:27:30,    270,    1.2,   15.3,   0.00,   0.00, 1021.1,   73.2, -999.0
07-07-2022, 00:27:39,    270,    0.7,   15.2,   0.00,   0.00, 1021.1,   73.1, -999.0
07-07-2022, 00:27:49,    299,    2.0,   15.3,   0.00,   0.00, 1021.1,   72.9, -999.0
07-07-2022, 00:27:59,    253,    2.3,   15.2,   0.00,   0.00, 1021.1,   73.2, -999.0
07-07-2022, 00:28:09,    260,    1.2,   15.2,   0.00,   0.00, 1021.1,   72.9, -999.0
07-07-2022, 00:28:19,    281,    0.6,   15.2,   0.00,   0.00, 1021.0,   73.1, -999.0
07-07-2022, 00:28:29,    267,    2.8,   15.3,   0.00,   0.00, 1021.1,   73.2, -999.0
07-07-2022, 00:28:39,    308,    3.6,   15.3,   0.00,   0.00, 1021.1,   73.1, -999.0
07-07-2022, 00:28:49,    297,    4.2,   15.2,   0.00,   0.00, 1021.0,   72.9, -999.0
07-07-2022, 00:28:59,    299,    1.2,   15.2,   0.00,   0.00, 1021.1,   73.3, -999.0
07-07-2022, 00:29:09,    310,    1.3,   15.3,   0.00,   0.00, 1021.1,   73.0, -999.0
07-07-2022, 00:29:19,    289,    2.3,   15.2,   0.00,   0.00, 1021.1,   73.2, -999.0
07-07-2022, 00:29:29,    292,    1.5,   15.3,   0.00,   0.00, 1021.1,   73.1, -999.0
07-07-2022, 00:29:39,    285,    2.5,   15.2,   0.00,   0.00, 1021.1,   73.2, -999.0
07-07-2022, 00:29:48,    289,    2.2,   15.2,   0.00,   0.00, 1021.1,   73.1, -999.0
07-07-2022, 00:29:59,    254,    2.9,   15.3,   0.00,   0.00, 1021.1,   73.1, -999.0
07-07-2022, 00:30:09,    273,    2.3,   15.3,   0.00,   0.00, 1021.1,   73.3, -999.0
07-07-2022, 00:30:18,    278,    1.8,   15.1,   0.00,   0.00, 1021.1,   73.4, -999.0
07-07-2022, 00:30:29,    277,    1.5,   15.2,   0.00,   0.00, 1021.1,   73.4, -999.0
07-07-2022, 00:30:38,    272,    1.0,   15.2,   0.00,   0.00, 1021.1,   73.3, -999.0
07-07-2022, 00:30:48,    265,    1.3,   15.2,   0.00,   0.00, 1021.1,   73.4, -999.0
07-07-2022, 00:30:58,    260,    0.9,   15.2,   0.00,   0.00, 1021.1,   73.2, -999.0
07-07-2022, 00:31:08,    275,    0.5,   15.2,   0.00,   0.00, 1021.0,   73.3, -999.0
07-07-2022, 00:31:18,    272,    1.5,   15.2,   0.00,   0.00, 1021.0,   73.2, -999.0
07-07-2022, 00:31:28,    293,    3.2,   15.2,   0.00,   0.00, 1021.1,   73.5, -999.0
07-07-2022, 00:31:38,    318,    3.7,   15.2,   0.00,   0.00, 1021.0,   73.2, -999.0
07-07-2022, 00:31:48,    294,    2.8,   15.3,   0.00,   0.00, 1021.1,   73.4, -999.0
07-07-2022, 00:31:58,    296,    1.7,   15.3,   0.00,   0.00, 1021.0,   73.3, -999.0
07-07-2022, 00:32:08,    305,    2.4,   15.3,   0.00,   0.00, 1021.0,   73.4, -999.0
07-07-2022, 00:32:18,    307,    3.8,   15.2,   0.00,   0.00, 1021.0,   73.3, -999.0
07-07-2022, 00:32:28,    295,    2.7,   15.2,   0.00,   0.00, 1021.0,   73.3, -999.0
07-07-2022, 00:32:38,    321,    1.8,   15.2,   0.00,   0.00, 1021.0,   73.1, -999.0
07-07-2022, 00:32:48,    306,    2.1,   15.3,   0.00,   0.00, 1021.0,   73.2, -999.0
07-07-2022, 00:32:58,    320,    1.2,   15.3,   0.00,   0.00, 1021.0,   73.1, -999.0
07-07-2022, 00:33:08,    294,    0.9,   15.3,   0.00,   0.00, 1021.0,   73.2, -999.0
07-07-2022, 00:33:18,    290,    0.2,   15.2,   0.00,   0.00, 1021.0,   73.1, -999.0
07-07-2022, 00:33:27,    264,    0.3,   15.3,   0.00,   0.00, 1021.0,   73.3, -999.0
07-07-2022, 00:33:38,    243,    0.1,   15.2,   0.00,   0.00, 1020.9,   72.8, -999.0
07-07-2022, 00:33:47,    267,    1.1,   15.3,   0.00,   0.00, 1021.0,   73.0, -999.0
07-07-2022, 00:33:57,    276,    1.0,   15.3,   0.00,   0.00, 1021.0,   73.2, -999.0
07-07-2022, 00:34:07,    282,    0.4,   15.3,   0.00,   0.00, 1020.9,   72.9, -999.0
07-07-2022, 00:34:17,    295,    1.0,   15.3,   0.00,   0.00, 1021.0,   73.0, -999.0
07-07-2022, 00:34:27,    261,    0.6,   15.2,   0.00,   0.00, 1020.9,   73.0, -999.0
07-07-2022, 00:34:37,    309,    0.6,   15.3,   0.00,   0.00, 1021.0,   73.1, -999.0
07-07-2022, 00:34:47,    308,    2.5,   15.3,   0.00,   0.00, 1021.0,   72.9, -999.0
07-07-2022, 00:34:57,    343,    1.5,   15.3,   0.00,   0.00, 1021.0,   73.5, -999.0
07-07-2022, 00:35:07,    330,    1.1,   15.3,   0.00,   0.00, 1021.0,   73.4, -999.0
07-07-2022, 00:35:17,    291,    0.8,   15.2,   0.00,   0.00, 1021.0,   73.2, -999.0
07-07-2022, 00:35:27,    288,    0.7,   15.3,   0.00,   0.00, 1021.0,   73.4, -999.0
07-07-2022, 00:35:37,    288,    0.1,   15.2,   0.00,   0.00, 1020.9,   73.1, -999.0
07-07-2022, 00:35:47,    288,    0.4,   15.2,   0.00,   0.00, 1020.9,   73.2, -999.0
07-07-2022, 00:35:56,    287,    0.2,   15.3,   0.00,   0.00, 1020.9,   73.2, -999.0
07-07-2022, 00:36:07,    279,    0.9,   15.3,   0.00,   0.00, 1021.0,   73.4, -999.0
07-07-2022, 00:36:17,    251,    1.1,   15.3,   0.00,   0.00, 1021.0,   73.1, -999.0
07-07-2022, 00:36:26,    250,    0.3,   15.3,   0.00,   0.00, 1021.0,   73.0, -999.0
07-07-2022, 00:36:36,    314,    0.0,   15.2,   0.00,   0.00, 1020.8,   72.8, -999.0
07-07-2022, 00:36:47,    314,    0.3,   15.2,   0.00,   0.00, 1020.8,   73.0, -999.0
07-07-2022, 00:36:56,    314,    0.0,   15.2,   0.00,   0.00, 1020.8,   72.7, -999.0
07-07-2022, 00:37:06,    314,    0.0,   15.2,   0.00,   0.00, 1020.8,   72.9, -999.0
07-07-2022, 00:37:17,    314,    0.0,   15.2,   0.00,   0.00, 1020.8,   72.8, -999.0
07-07-2022, 00:37:26,    314,    0.0,   15.2,   0.00,   0.00, 1020.8,   72.8, -999.0
07-07-2022, 00:37:36,    314,    0.0,   15.2,   0.00,   0.00, 1020.8,   72.8, -999.0
07-07-2022, 00:37:46,    314,    0.5,   15.2,   0.00,   0.00, 1020.9,   73.0, -999.0
07-07-2022, 00:37:56,    275,    1.8,   15.3,   0.00,   0.00, 1020.9,   73.2, -999.0
07-07-2022, 00:38:06,    274,    0.5,   15.3,   0.00,   0.00, 1020.9,   73.3, -999.0
07-07-2022, 00:38:16,    277,    0.1,   15.2,   0.00,   0.00, 1020.8,   72.9, -999.0
07-07-2022, 00:38:26,    293,    0.6,   15.3,   0.00,   0.00, 1020.8,   73.1, -999.0
07-07-2022, 00:38:36,    297,    1.4,   15.2,   0.00,   0.00, 1020.9,   73.2, -999.0
07-07-2022, 00:38:46,    265,    0.7,   15.2,   0.00,   0.00, 1020.9,   73.3, -999.0
07-07-2022, 00:38:56,    264,    0.0,   15.3,   0.00,   0.00, 1020.8,   73.0, -999.0
07-07-2022, 00:39:05,    348,    0.7,   15.2,   0.00,   0.00, 1020.9,   73.4, -999.0
07-07-2022, 00:39:16,    322,    0.2,   15.3,   0.00,   0.00, 1020.8,   73.1, -999.0
07-07-2022, 00:39:26,    323,    0.0,   15.1,   0.00,   0.00, 1020.8,   72.8, -999.0
07-07-2022, 00:39:35,    322,    0.0,   15.1,   0.00,   0.00, 1020.8,   72.9, -999.0
07-07-2022, 00:39:46,    322,    0.0,   15.1,   0.00,   0.00, 1020.7,   72.8, -999.0
07-07-2022, 00:39:55,    323,    0.0,   15.1,   0.00,   0.00, 1020.7,   72.9, -999.0
07-07-2022, 00:40:05,    323,    0.0,   15.1,   0.00,   0.00, 1020.8,   72.8, -999.0
07-07-2022, 00:40:15,    322,    0.0,   15.2,   0.00,   0.00, 1020.8,   72.9, -999.0
07-07-2022, 00:40:25,    322,    0.0,   15.2,   0.00,   0.00, 1020.8,   72.9, -999.0
07-07-2022, 00:40:35,    322,    0.0,   15.1,   0.00,   0.00, 1020.8,   72.9, -999.0
07-07-2022, 00:40:45,    285,    0.4,   15.1,   0.00,   0.00, 1020.8,   73.2, -999.0
07-07-2022, 00:40:55,    274,    2.6,   15.2,   0.00,   0.00, 1020.9,   73.6, -999.0
07-07-2022, 00:41:05,    302,    1.6,   15.1,   0.00,   0.00, 1020.9,   73.3, -999.0
07-07-2022, 00:41:15,    302,    0.1,   15.2,   0.00,   0.00, 1020.9,   73.3, -999.0
07-07-2022, 00:41:25,    302,    0.4,   15.2,   0.00,   0.00, 1020.9,   73.3, -999.0
07-07-2022, 00:41:35,    302,    1.0,   15.2,   0.00,   0.00, 1020.9,   73.4, -999.0
07-07-2022, 00:41:45,    301,    0.9,   15.2,   0.00,   0.00, 1020.9,   73.5, -999.0
07-07-2022, 00:41:55,    283,    2.1,   15.2,   0.00,   0.00, 1020.9,   73.6, -999.0
07-07-2022, 00:42:05,    229,    1.2,   15.2,   0.00,   0.00, 1020.9,   73.5, -999.0
07-07-2022, 00:42:15,    256,    0.0,   15.1,   0.00,   0.00, 1020.8,   73.4, -999.0
07-07-2022, 00:42:25,    298,    1.1,   15.1,   0.00,   0.00, 1020.9,   73.6, -999.0
07-07-2022, 00:42:34,    298,    1.1,   15.2,   0.00,   0.00, 1020.9,   73.5, -999.0
07-07-2022, 00:42:44,    297,    0.0,   15.1,   0.00,   0.00, 1020.8,   73.4, -999.0
07-07-2022, 00:42:55,    289,    0.3,   15.1,   0.00,   0.00, 1020.8,   73.5, -999.0
07-07-2022, 00:43:04,    336,    1.1,   15.2,   0.00,   0.00, 1020.9,   73.7, -999.0
07-07-2022, 00:43:14,    295,    2.4,   15.2,   0.00,   0.00, 1020.9,   73.8, -999.0
07-07-2022, 00:43:25,    292,    2.9,   15.2,   0.00,   0.00, 1020.9,   73.5, -999.0
07-07-2022, 00:43:34,    292,    1.6,   15.2,   0.00,   0.00, 1020.9,   73.6, -999.0
07-07-2022, 00:43:44,    296,    1.5,   15.2,   0.00,   0.00, 1020.9,   73.9, -999.0
07-07-2022, 00:43:54,    296,    0.6,   15.1,   0.00,   0.00, 1020.9,   73.6, -999.0
07-07-2022, 00:44:04,    296,    1.0,   15.1,   0.00,   0.00, 1020.9,   73.5, -999.0
07-07-2022, 00:44:14,    297,    0.0,   15.1,   0.00,   0.00, 1020.8,   73.3, -999.0
07-07-2022, 00:44:24,    273,    0.8,   15.1,   0.00,   0.00, 1020.9,   73.9, -999.0
07-07-2022, 00:44:34,    274,    0.2,   15.1,   0.00,   0.00, 1020.8,   73.5, -999.0
07-07-2022, 00:44:44,    274,    0.1,   15.1,   0.00,   0.00, 1020.9,   73.6, -999.0
07-07-2022, 00:44:54,    275,    0.0,   15.1,   0.00,   0.00, 1020.8,   73.3, -999.0
07-07-2022, 00:45:04,    257,    0.7,   14.9,   0.00,   0.00, 1020.8,   73.4, -999.0
07-07-2022, 00:45:13,    321,    1.8,   15.1,   0.00,   0.00, 1020.9,   73.8, -999.0
07-07-2022, 00:45:24,    296,    1.9,   15.0,   0.00,   0.00, 1020.9,   73.7, -999.0
07-07-2022, 00:45:36,    295,    0.9,   15.1,   0.00,   0.00, 1020.9,   73.9, -999.0
07-07-2022, 00:45:43,    295,    0.5,   15.0,   0.00,   0.00, 1020.9,   73.8, -999.0
07-07-2022, 00:45:54,    295,    0.6,   15.1,   0.00,   0.00, 1020.9,   73.8, -999.0
07-07-2022, 00:46:04,    294,    1.1,   15.1,   0.00,   0.00, 1020.9,   74.2, -999.0
07-07-2022, 00:46:13,    294,    0.1,   15.0,   0.00,   0.00, 1020.8,   73.6, -999.0
07-07-2022, 00:46:23,    296,    1.4,   15.0,   0.00,   0.00, 1020.9,   74.0, -999.0
07-07-2022, 00:46:33,    293,    3.5,   15.1,   0.00,   0.00, 1020.9,   74.1, -999.0
07-07-2022, 00:46:43,    306,    3.4,   15.0,   0.00,   0.00, 1020.9,   74.2, -999.0